www.pogodaiklimat.ru

Погода и климат >> Архив погоды >> Молдова >> Кишинев


АРХИВ ПОГОДЫ в Кишиневе

Время (UTC), дата Ветер
(напр.,м/с)
 
Видим.   Явления Облачность Т
(С)
Тd
(С)
f
(%)
Тe
(С)
Тes
(С)
Комфортность P
(гПа)
Po
(гПа)
Тmin
(С)
Tmax
(С)
R
(мм)
R24
(мм)
S
(см)
09 14.11 С 5 20 км {дождь} 10/10 600 м
[Sc]
+7.3 +4.4 82 +3 +3 по сезону 1015.7 995.0
12 14.11 С 7 20 км {дождь} 10/9 600 м
[Cu med, cong Ac trans]
+7.2 +2.5 72 +3 +3 по сезону 1017.7 996.9
15 14.11 С 4 20 км 10/8 600 м
[Sc Ac trans]
+6.2 +1.1 70 +3 +3 по сезону 1020.0 999.1
18 14.11 С 4 20 км 9/8 600 м
[Sc Ac trans]
+5.4 +0.6 71 +2 +2 по сезону 1022.7 1001.7 +8.5 0.0
21 14.11 С 3 20 км 10/8 600 м
[Sc Ac trans]
+4.9 +0.8 75 +2 +2 по сезону 1024.3 1003.2
00 15.11 С 2 20 км 10/4 600 м
[Sc Ac trans Ci fib]
+4.5 +0.5 75 +2 +2 по сезону 1024.7 1003.6
03 15.11 С 1 20 км 8/3 600 м
[Sc Ac trans Ci fib]
+4.0 0.0 75 +3 +3 по сезону 1025.6 1004.4
06 15.11 СВ 1 20 км 10/10 600 м
[Cu Sc]
+3.7 -0.1 76 +2 +2 по сезону 1027.1 1005.9 +3.7
09 15.11 СВ 1 20 км 10/10 600 м
[Cu med, cong]
+4.5 -0.1 72 +3 +3 по сезону 1028.6 1007.4
12 15.11 С 1 20 км 10/8 600 м
[Cu med, cong Ac trans]
+5.3 -0.3 67 +4 +5 по сезону 1028.0 1006.9
15 15.11 В 1 20 км 10/8 600 м
[Sc Ac trans]
+5.0 -0.4 68 +4 +4 по сезону 1028.4 1007.2
18 15.11 штиль 0 20 км 10/6 600 м
[Sc Ac trans]
+4.0 -0.6 72 +3 +3 по сезону 1029.5 1008.2 +5.7
21 15.11 В 1 20 км 10/10 600 м
[Sc]
+3.5 -1.3 71 +2 +2 по сезону 1029.7 1008.4
00 16.11 В 1 20 км 10/10 600 м
[Sc]
+3.0 -1.0 75 +2 +2 по сезону 1029.8 1008.5
03 16.11 В 1 20 км 10/10 600 м
[Sc]
+2.6 -1.0 77 +1 +1 по сезону 1029.5 1008.1
06 16.11 В 2 10 км 10/10 600 м
[Sc]
+2.5 -0.9 78 -1 -1 по сезону 1030.1 1008.7 +2.4
09 16.11 В 2 20 км 10/10 600 м
[Sc]
+3.2 -1.0 74 0 0 по сезону 1030.3 1009.0
12 16.11 В 2 20 км 10/10 600 м
[Sc]
+4.0 -1.4 68 +2 +2 по сезону 1029.0 1007.8
15 16.11 В 1 10 км 10/10 600 м
[Sc]
+4.1 -1.5 67 +3 +3 по сезону 1028.8 1007.6
18 16.11 штиль 0 10 км 10/10 600 м
[Sc]
+4.0 -0.8 71 +3 +3 по сезону 1028.4 1007.2 +4.3
21 16.11 В 1 10 км 10/10 600 м
[Sc]
+4.3 -0.7 70 +3 +3 по сезону 1027.7 1006.5
00 17.11 В 1 10 км 10/10 600 м
[Sc]
+3.5 -0.5 75 +2 +2 по сезону 1027.7 1006.4
03 17.11 В 2 10 км 10/10 600 м
[Sc]
+2.9 -1.1 75 0 0 по сезону 1026.5 1005.2
06 17.11 штиль 0 20 км 10/8 600 м
[Sc Ac trans]
+2.6 -1.4 75 +2 +2 по сезону 1026.3 1005.0 +2.6
09 17.11 Ю 2 20 км 10/4 600 м
[Sc Ac trans]
+4.0 -0.8 71 +1 +2 по сезону 1026.0 1004.8
12 17.11 ЮВ 2 20 км 10/3 600 м
[Sc Ac trans]
+5.0 -0.2 69 +3 +3 по сезону 1024.2 1003.1
15 17.11 В 2 20 км 10/8 600 м
[Sc Ac trans]
+4.0 0.0 75 +1 +1 по сезону 1023.3 1002.2
18 17.11 В 2 20 км 10/0
[Ac und]
+3.5 +0.2 79 +1 +1 по сезону 1022.8 1001.7 +5.2
21 17.11 В 1 20 км 10/0
[Ac und]
+3.2 +0.6 83 +2 +2 по сезону 1022.2 1001.0
00 18.11 СВ 1 20 км 9/0
[Ac trans]
+3.0 +1.2 88 +1 +1 по сезону 1021.1 1000.0
03 18.11 З 1 10 км 10/4 600 м
[Sc Ac trans]
+1.7 +0.5 92 -0 -0 по сезону 1020.4 999.2
06 18.11 штиль 0 4000 м дымка 10/10 600 м
[St]
+2.5 +1.3 92 +1 +1 по сезону 1019.6 998.4 +1.5
09 18.11 штиль 0 20 км дымка 10/10 600 м
[Sc]
+5.2 +1.9 79 +4 +4 по сезону 1018.8 997.9
12 18.11 штиль 0 10 км 10/10 600 м
[Sc]
+6.0 +2.3 77 +5 +5 по сезону 1017.0 996.2
15 18.11 штиль 0 4000 м дымка 10/10 600 м
[Sc]
+5.2 +2.9 85 +4 +4 по сезону 1015.9 995.0
18 18.11 Ю 1 4000 м дымка {дождь} 10/10 600 м
[Sc]
+4.8 +3.1 89 +3 +3 по сезону 1015.0 994.1 +6.4 0.0
21 18.11 штиль 0 2000 м в посл. час дождь 10/10 600 м
[Sc]
+4.4 +3.2 92 +3 +3 по сезону 1014.1 993.2
00 19.11 штиль 0 2000 м дымка {дождь} 10/10 600 м
[Sc]
+4.3 +3.4 94 +3 +3 по сезону 1012.6 991.7
03 19.11 штиль 0 500 м слабый дождь {туман} туман ?/? +4.5 +3.8 95 +3 +3 по сезону 1010.8 990.0
06 19.11 штиль 0 500 м туман {дождь} ?/? +5.0 +4.3 95 +4 +4 тепло 1010.8 990.0 +4.3 2
09 19.11 штиль 0 4000 м дымка {туман} 10/10 600 м
[Sc]
+5.6 +4.9 95 +4 +4 по сезону 1010.1 989.4
12 19.11 С 4 4000 м дымка {туман} 10/10 600 м
[Cb calv]
+6.3 +4.8 90 +2 +2 по сезону 1009.7 989.0
15 19.11 С 2 10 км в посл. час ливневой дождь 10/9 600 м
[Cb calv Ac trans]
+6.1 +4.9 92 +4 +4 по сезону 1010.1 989.4
18 19.11 СЗ 3 10 км {ливн. осадки} 10/10 600 м
[Sc]
+4.8 +3.3 90 +1 +1 по сезону 1010.8 990.0 +6.6 0.0
21 19.11 С 3 10 км 10/10 600 м
[Sc]
+3.4 +2.4 93 -1 -1 по сезону 1011.1 990.2
00 20.11 СЗ 3 10 км 10/5 600 м
[Sc Ac trans Ci fib]
+2.5 +0.9 89 -2 -2 по сезону 1011.0 990.0
03 20.11 С 2 10 км 10/6 600 м
[Sc Ac trans]
+2.0 +0.4 89 -1 -1 по сезону 1010.5 989.5
06 20.11 С 2 10 км 8/0
[Ac trans Ci fib]
+1.3 -0.3 89 -2 -2 по сезону 1010.8 989.7 +1.2
09 20.11 С 1 10 км 9/0
[Ac trans Ci fib]
+4.6 +0.4 74 +3 +6 по сезону 1010.5 989.7
12 20.11 С 1 20 км 10/3 600 м
[Cu hum Ac trans Ci fib]
+6.2 -1.4 58 +6 +6 по сезону 1009.9 989.2
15 20.11 С 3 10 км 10/4 600 м
[Sc Ac trans Ci fib]
+4.9 -2.2 60 +2 +2 по сезону 1010.0 989.2
18 20.11 СЗ 4 10 км 8/5 600 м
[Sc Ac trans]
+3.0 -0.8 76 -2 -2 по сезону 1011.5 990.5 +6.6
21 20.11 СЗ 3 10 км 8/5 600 м
[Sc Ac trans]
+2.4 -1.2 77 -2 -2 по сезону 1011.7 990.7
00 21.11 СЗ 4 10 км 10/10 600 м
[Sc]
+1.8 -1.6 78 -3 -3 прохладно 1012.8 991.7
03 21.11 СЗ 4 10 км 3/0
[Ac trans]
+0.4 -4.4 70 -5 -5 прохладно 1013.2 992.0

 

Местоположение метеостанции Кишинев (Молдова): широта 47.02 долгота 28.98 высота над уровнем моря 173 м.

В архиве по умолчанию представлена погода в Кишиневе за последнюю неделю. Архивные данные за месяц целиком и за предыдущие месяцы, начиная с января 2011 года, Вы можете получить, выбрав интересующий диапазон дат из раскрывающегося списка и нажав кнопку "Ввод!".

Внимание! Время в таблицах - всемирное. Для получения местного времени необходимо прибавить поправку, которая в Кишиневе равна 2 ч.

Смотрите также архив погоды в соседних городах и на ближайших метеорологических станциях:

Погода в Балцате (Молдова) (5 км)
Погода в Дубоссарах (Молдова) (29 км)
Погода в Кодрах (Молдова) (46 км)
Погода в Тирасполе (Молдова) (49 км)
Погода в Бравичах (Молдова) (57 км)
Погода в Штефан Водэ (Молдова) (67 км)
Погода в Корнестах (Молдова) (76 км)
Погода в Затишье (Одесская область, Украина) (76 км)
Погода в Леове (Молдова) (80 км)
Погода в Заставе (Одесская область, Украина) (81 км)

Пояснения к столбцам:

Ветер - указаны скорость ветра в м/с - средняя за 10 мин, порывы в срок и между сроками (в фигурных скобках) и направление, откуда дует ветер: С - северный, СВ - северо-восточный, В - восточный, ЮВ - юго-восточный, Ю - южный, ЮЗ - юго-западный, З - западный, СЗ - северо-западный.
Видимость - горизонтальная дальность видимости в метрах или километрах. При видимости от 1 до 10 км при отсутствии осадков обычно наблюдается дымка, при ухудшении видимости до 1 км и менее - туман. В сухую погоду видимость может ухудшаться дымом, пылью или мглою.
Явления - указаны атмосферные явления, наблюдавшиеся в срок или в последний час перед сроком; фигурными скобками обозначены явления, наблюдавшиеся между сроками (за 1-3 часа до срока); квадратными скобками обозначены град или гололедные отложения с указанием их диаметра в мм.
Облачность - указаны через наклонную черту общая и нижняя облачность в баллах и высота нижней границы облаков в метрах; квадратными скобками обозначены формы облаков: Ci - перистые, Cs - перисто-слоистые, Cc - перисто-кучевые, Ac - высококучевые, As - высокослоистые, Sc - слоисто-кучевые, Ns - слоисто-дождевые, Cu - кучевые, Cb - кучево-дождевые. Подробнее классификацию облаков см. в Атласе облаков (PDF).
T - Температура воздуха - температура, измеренная на высоте 2 м над землей.
Td - Температура точки росы - температура, при понижении до которой содержащийся в воздухе водяной пар достигнет насыщения.
f - Относительная влажность воздуха - влажноcть воздуха, измеренная на высоте 2 м над землей.
Te - Эффективная температура - температура, которую ощущает одетый по сезону человек в тени. Характеристика душности погоды. При расчете учитывается влияние влажности воздуха и скорости ветра на теплоощущения человека.
Tes - Эффективная температура на солнце - температура, которую ощущает человек, с поправкой на солнечный нагрев. Характеристика знойности погоды. Зависит от высоты солнца над горизонтом, облачности и скорости ветра. Ночью, в пасмурную погоду, а также при ветре 12 м/с и более поправка равна нулю.
P - Атмосферное давление - приведенное к уровню моря атмосферное давление.
Po - Атмосферное давление - измеренное на уровне метеостанции атмосферное давление.
Tmin - Минимальная температура - минимум температуры воздуха на высоте 2 м над землей.
Tmax - Максимальная температура - максимум температуры воздуха на высоте 2 м над землей.
R - Количество осадков - Количество выпавших осадков за период времени, мм. При наведении курсора мыши на число - период времени, за который выпало указанное количество осадков.
R24 - Количество осадков - Количество выпавших осадков за 24 часа, мм.
S - Снежный покров - Высота снежного покрова, см. При наведении курсора мыши на число - состояние снежного покрова и степень покрытия местности в баллах.